TimeCDT,TemperatureF,Dew PointF,Humidity,Sea Level PressureIn,VisibilityMPH,Wind Direction,Wind SpeedMPH,Gust SpeedMPH,PrecipitationIn,Events,Conditions,WindDirDegrees,DateUTC
12:14 AM,62.6,39.2,42,30.07,10.0,SE,4.6,-,N/A,,Clear,130,2011-10-05 05:14:00
12:33 AM,62.6,39.2,42,30.06,10.0,SE,4.6,-,N/A,,Clear,140,2011-10-05 05:33:00
12:54 AM,60.8,39.2,45,30.06,10.0,SE,4.6,-,N/A,,Clear,140,2011-10-05 05:54:00
1:13 AM,60.8,39.2,45,30.06,10.0,SE,5.8,-,N/A,,Clear,130,2011-10-05 06:13:00
1:33 AM,60.8,39.2,45,30.06,10.0,ESE,3.5,-,N/A,,Clear,120,2011-10-05 06:33:00
2:13 AM,57.2,41.0,55,30.06,10.0,SE,3.5,-,N/A,,Clear,130,2011-10-05 07:13:00
2:33 AM,57.2,42.8,59,30.06,10.0,ESE,3.5,-,N/A,,Clear,120,2011-10-05 07:33:00
2:53 AM,57.2,42.8,59,30.06,10.0,ESE,3.5,-,N/A,,Clear,120,2011-10-05 07:53:00
3:13 AM,57.2,42.8,59,30.06,10.0,Calm,Calm,-,N/A,,Clear,0,2011-10-05 08:13:00
3:33 AM,57.2,42.8,59,30.06,10.0,Calm,Calm,-,N/A,,Clear,0,2011-10-05 08:33:00
3:53 AM,57.2,42.8,59,30.06,10.0,Calm,Calm,-,N/A,,Clear,0,2011-10-05 08:53:00
4:13 AM,55.4,42.8,63,30.06,10.0,Calm,Calm,-,N/A,,Clear,0,2011-10-05 09:13:00
4:53 AM,55.4,42.8,63,30.07,10.0,Calm,Calm,-,N/A,,Clear,0,2011-10-05 09:53:00
5:14 AM,55.4,44.6,67,30.08,10.0,SE,3.5,-,N/A,,Clear,130,2011-10-05 10:14:00
5:33 AM,57.2,44.6,63,30.08,10.0,Calm,Calm,-,N/A,,Clear,0,2011-10-05 10:33:00
5:53 AM,53.6,44.6,72,30.08,10.0,SE,3.5,-,N/A,,Clear,130,2011-10-05 10:53:00
6:13 AM,53.6,46.4,77,30.08,10.0,Calm,Calm,-,N/A,,Clear,0,2011-10-05 11:13:00
6:33 AM,57.2,44.6,63,30.08,10.0,Calm,Calm,-,N/A,,Clear,0,2011-10-05 11:33:00
6:53 AM,57.2,44.6,63,30.08,7.0,Calm,Calm,-,N/A,,Clear,0,2011-10-05 11:53:00
7:13 AM,57.2,44.6,63,30.09,7.0,SSE,3.5,-,N/A,,Clear,160,2011-10-05 12:13:00
7:33 AM,57.2,44.6,63,30.09,7.0,Calm,Calm,-,N/A,,Clear,0,2011-10-05 12:33:00
7:53 AM,57.2,44.6,63,30.09,4.0,Calm,Calm,-,N/A,,Haze,0,2011-10-05 12:53:00
8:13 AM,57.2,46.4,67,30.10,7.0,Calm,Calm,-,N/A,,Clear,0,2011-10-05 13:13:00
8:33 AM,59.0,46.4,63,30.10,7.0,Calm,Calm,-,N/A,,Clear,0,2011-10-05 13:33:00
8:54 AM,62.6,46.4,55,30.10,10.0,SSE,3.5,-,N/A,,Clear,150,2011-10-05 13:54:00
9:13 AM,62.6,46.4,55,30.11,10.0,SSE,3.5,-,N/A,,Clear,150,2011-10-05 14:13:00
9:33 AM,62.6,46.4,55,30.11,10.0,Calm,Calm,-,N/A,,Clear,0,2011-10-05 14:33:00
9:54 AM,62.6,46.4,55,30.11,10.0,South,4.6,-,N/A,,Clear,180,2011-10-05 14:54:00
10:33 AM,73.4,46.4,38,30.10,10.0,South,9.2,-,N/A,,Clear,190,2011-10-05 15:33:00
10:54 AM,75.2,46.4,36,30.10,10.0,South,11.5,16.1,N/A,,Clear,190,2011-10-05 15:54:00
11:13 AM,75.2,46.4,36,30.10,10.0,SSW,8.1,-,N/A,,Clear,200,2011-10-05 16:13:00
11:33 AM,75.2,46.4,36,30.10,10.0,SSW,6.9,-,N/A,,Clear,200,2011-10-05 16:33:00
11:54 AM,78.8,46.4,32,30.09,10.0,South,9.2,-,N/A,,Clear,190,2011-10-05 16:54:00
12:13 PM,78.8,46.4,32,30.09,10.0,SSW,5.8,-,N/A,,Clear,210,2011-10-05 17:13:00
12:33 PM,82.4,48.2,30,30.09,10.0,South,5.8,-,N/A,,Clear,190,2011-10-05 17:33:00
12:54 PM,82.4,46.4,28,30.08,10.0,South,6.9,-,N/A,,Clear,190,2011-10-05 17:54:00
1:13 PM,82.4,46.4,28,30.08,10.0,South,8.1,-,N/A,,Clear,180,2011-10-05 18:13:00
1:33 PM,84.2,46.4,27,30.07,10.0,South,6.9,-,N/A,,Clear,170,2011-10-05 18:33:00
2:33 PM,84.2,46.4,27,30.05,10.0,South,12.7,17.3,N/A,,Clear,170,2011-10-05 19:33:00
3:13 PM,84.2,46.4,27,30.04,10.0,SSE,12.7,18.4,N/A,,Clear,160,2011-10-05 20:13:00
3:33 PM,84.2,46.4,27,30.03,10.0,South,11.5,17.3,N/A,,Clear,180,2011-10-05 20:33:00
4:13 PM,84.2,46.4,27,30.03,10.0,South,9.2,-,N/A,,Clear,180,2011-10-05 21:13:00
4:33 PM,84.2,44.6,25,30.03,10.0,SSE,10.4,17.3,N/A,,Clear,160,2011-10-05 21:33:00
4:54 PM,82.4,44.6,26,30.02,10.0,South,13.8,19.6,N/A,,Clear,180,2011-10-05 21:54:00
5:13 PM,82.4,44.6,26,30.02,10.0,South,11.5,16.1,N/A,,Clear,170,2011-10-05 22:13:00
5:33 PM,82.4,46.4,28,30.02,10.0,SSE,6.9,-,N/A,,Clear,160,2011-10-05 22:33:00
5:54 PM,80.6,46.4,30,30.02,10.0,SSE,6.9,-,N/A,,Clear,150,2011-10-05 22:54:00
6:14 PM,78.8,46.4,32,30.02,10.0,SSE,6.9,-,N/A,,Clear,150,2011-10-05 23:14:00
6:33 PM,75.2,46.4,36,30.02,10.0,SSE,4.6,-,N/A,,Clear,150,2011-10-05 23:33:00
6:53 PM,73.4,46.4,38,30.03,10.0,SSE,4.6,-,N/A,,Clear,150,2011-10-05 23:53:00
7:13 PM,71.6,46.4,41,30.03,10.0,SSE,4.6,-,N/A,,Clear,150,2011-10-06 00:13:00
7:33 PM,69.8,46.4,43,30.03,10.0,SE,4.6,-,N/A,,Clear,140,2011-10-06 00:33:00
7:54 PM,68.0,46.4,46,30.04,10.0,SE,3.5,-,N/A,,Clear,140,2011-10-06 00:54:00
8:13 PM,66.2,46.4,49,30.04,10.0,SSE,4.6,-,N/A,,Clear,150,2011-10-06 01:13:00
8:33 PM,66.2,46.4,49,30.04,10.0,SSE,4.6,-,N/A,,Clear,160,2011-10-06 01:33:00
8:53 PM,64.4,46.4,52,30.05,10.0,SSE,4.6,-,N/A,,Clear,160,2011-10-06 01:53:00
9:13 PM,64.4,44.6,49,30.05,10.0,SSE,4.6,-,N/A,,Clear,160,2011-10-06 02:13:00
9:33 PM,62.6,44.6,52,30.06,10.0,SSE,4.6,-,N/A,,Clear,150,2011-10-06 02:33:00
9:54 PM,62.6,44.6,52,30.06,10.0,SSE,5.8,-,N/A,,Clear,160,2011-10-06 02:54:00
10:13 PM,62.6,44.6,52,30.06,10.0,SSE,4.6,-,N/A,,Clear,150,2011-10-06 03:13:00
10:33 PM,60.8,44.6,55,30.07,10.0,SE,3.5,-,N/A,,Clear,130,2011-10-06 03:33:00
10:53 PM,60.8,44.6,55,30.07,10.0,SE,3.5,-,N/A,,Clear,140,2011-10-06 03:53:00
11:13 PM,60.8,44.6,55,30.07,10.0,SSE,4.6,-,N/A,,Clear,150,2011-10-06 04:13:00
11:33 PM,59.0,44.6,59,30.07,10.0,Calm,Calm,-,N/A,,Clear,0,2011-10-06 04:33:00
11:54 PM,59.0,44.6,59,30.07,10.0,Calm,Calm,-,N/A,,Clear,0,2011-10-06 04:54:00